SCP
0 0 0 0 0 0 0 0 0 0 0 0 0 0 0 0 0 0 0 0 0 0 0 0 0 0 0 0 0 0 0 0 0 0 0 0 0 0 0 0 0 0 0 0
0 0 0 0 0 0 0 0 0 0 0 0 0 0 0 0 0 0 0 0 0 0 0 0 0 0 0 0 0 0 0 0 0 0 0 0 0 0 0 0 0 0 0 0
0 0 0 0 0 0 0 0 0 0 0 0 0 0 0 0 0 0 0 0 0 0 0 0 0 0 0 -0 0 0 0 0 0 0 0 0 0 0 0 0 0 0 0 0
0 0 0 0 0 0 0 0 0 0 0 0 0 0 0 0 0 0 0 0 0 0 0 0 0 0 0 -0 -0 -0 -0 -0 0 0 0 0 0 0 0 0 0 0 0 0
0 0 0 0 0 0 0 0 0 0 0 0 0 0 0 0 0 0 0 0 0 0 0 0 0 0 0 0 -0 -0 -0 -0 -0 0 0 0 0 0 0 0 0 0 0 0
0 0 0 0 0 0 0 0 0 0 0 0 0 0 0 0 0 0 0 0 0 0 0 0 0 0 0 0 0 -0 -0 -0 -0 0 0 0 0 0 0 0 0 0 0 0
0 0 0 0 0 0 0 0 0 0 0 0 0 0 0 0 0 0 0 0 0 0 0 0 0 0 0 0 0 0 0 0 0 0 0 0 0 0 0 0 0 0 0 0
0 0 0 0 0 0 0 0 0 0 0 0 0 0 0 0 0 0 0 0 0 0 0 0 0 0 0 0 0 0 0 0 0 0 0 0 0 0 0 0 0 0 0 0
0 0 0 0 0 0 0 0 0 0 0 0 0 0 0 0 0 0 0 0 0 0 0 0 0 0 0 0 0 0 0 0 0 0 0 0 0 0 0 0 0 0 0 0
0 0 0 0 0 0 0 0 0 0 0 0 0 0 0 0 0 0 0 0 0 0 0 0 0 0 0 0 0 0 0 0 0 0 0 0 0 0 0 0 0 0 0 0
0 0 0 0 0 0 0 0 0 0 0 0 0 0 0 0 0 0 0 0 0 0 0 0 0 0 0 0 0 0 0 0 0 0 0 0 0 0 0 0 0 0 0 0
0 0 0 0 0 0 0 0 0 0 0 0 0 0 0 0 0 0 0 0 0 0 0 0 0 0 0 0 0 0 0 0 0 0 0 0 0 0 0 0 0 0 0 0
0 0 0 0 0 0 0 0 0 0 0 0 0 0 0 0 0 0 0 0 0 0 0 0 0 0 0 0 0 0 0 0 0 0 0 0 0 0 0 0 0 0 0 0
0 0 0 0 0 0 0 0 0 0 0 0 0 0 0 0 0 0 0 0 0 0 0 0 0 0 0 0 0 0 0 0 0 0 0 0 0 0 0 0 0 0 0 0
0 0 0 0 0 0 0 0 0 0 0 0 0 0 0 0 0 0 0 0 0 0 0 0 0 0 0 0 0 0 0 0 0 0 0 0 0 0 0 0 0 0 0 0
0 0 0 0 0 0 0 0 0 0 0 0 0 0 0 0 0 0 0 0 0 0 0 0 0 0 0 0 0 0 0 0 0 0 0 0 0 0 0 0 0 0 0 0
0 0 0 0 0 0 0 0 0 0 0 0 0 0 0 0 0 0 0 0 0 0 0 0 0 0 0 0 0 0 0 0 0 0 0 0 0 0 0 0 0 0 0 0
0 0 0 0 0 0 0 0 0 0 0 0 0 0 0 0 0 0 0 0 0 0 0 0 0 0 0 0 0 0 0 0 0 0 0 0 0 0 0 0 0 0 0 0
0 0 0 0 0 0 0 0 0 0 0 0 0 0 0 0 0 0 0 0 0 0 0 0 0 0 0 0 0 0 0 0 0 0 0 0 0 0 0 0 0 0 0 0
0 0 0 0 0 0 0 0 0 0 0 0 0 0 0 0 0 0 0 0 0 0 0 0 0 0 0 0 0 0 0 0 0 0 0 0 0 0 0 0 0 0 0 0
0 0 0 0 0 0 0 0 0 0 0 0 0 0 0 0 0 0 0 0 0 0 0 0 0 0 0 0 0 0 0 0 0 0 0 0 0 0 0 0 0 0 0 0
0 0 0 0 0 0 0 0 0 0 0 0 0 0 0 0 0 0 0 0 0 0 0 0 0 0 0 0 0 0 0 0 0 0 0 0 0 0 0 0 0 0 0 0
0 0 0 0 0 0 0 0 0 0 0 0 0 0 0 0 0 0 0 0 0 0 0 0 0 0 0 0 0 0 0 0 0 0 0 0 0 0 0 0 0 0 0 0
0 0 0 0 0 0 0 0 0 0 0 0 0 0 0 0 0 0 0 0 0 0 0 0 0 0 0 0 0 0 0 0 0 0 0 0 0 0 0 0 0 0 0 0
0 0 0 0 0 0 0 0 0 0 0 0 0 0 0 0 0 0 0 0 0 0 0 0 0 0 0 0 0 0 0 0 0 0 0 0 0 0 0 0 0 0 0 0
0 0 0 0 0 0 0 0 0 0 0 0 0 0 0 0 0 0 0 0 0 0 0 0 0 0 0 0 0 0 0 0 0 0 0 0 0 0 0 0 0 0 0 0
0 0 0 0 0 0 0 0 0 0 0 0 0 0 0 0 0 0 0 0 0 0 0 0 0 0 0 0 0 0 0 0 0 0 0 0 0 0 0 0 0 0 0 0
Wind_Speed
7 6 7 7 7 8 9 8 8 6 4 1 1 1 2 3 3 3 4 4 3 3 3 3 2 2 2 2 1 1 1 1 1 1 1 2 2 3 3 2 2 2 2 3
7 7 7 8 8 8 8 7 7 6 3 1 2 2 2 3 3 3 3 3 3 3 3 3 2 2 2 2 2 1 1 1 1 1 1 2 2 2 2 3 3 2 3 3
7 6 8 9 8 8 6 5 6 6 1 2 2 2 2 2 3 3 3 3 3 3 3 3 2 2 2 2 1 1 1 1 1 1 1 2 2 3 3 3 2 2 3 3
7 7 10 1 1 4 4 3 2 1 2 2 2 2 2 2 2 3 3 3 3 3 3 3 3 3 2 2 2 1 1 1 0 0 1 2 2 3 3 2 3 3 3 4
7 9 7 5 4 5 5 4 1 1 1 1 1 4 4 2 1 2 3 3 3 3 3 3 3 3 3 3 2 1 1 0 0 1 1 1 2 2 2 2 2 3 3 4
8 9 8 1 2 2 5 6 3 2 2 1 2 4 2 2 1 2 2 3 3 3 4 4 4 4 3 3 2 1 1 1 1 1 1 2 2 2 2 2 2 3 3 3
10 10 4 3 1 4 7 1 4 2 2 2 1 3 2 1 1 2 3 3 4 4 4 4 5 4 4 3 2 2 2 2 1 1 0 1 1 1 2 2 3 3 3 3
7 9 3 5 2 1 4 4 2 1 1 1 1 1 0 0 1 1 2 4 4 4 4 4 5 5 4 4 3 2 2 2 2 1 1 0 1 1 2 3 3 2 2 3
4 2 4 2 2 3 2 1 1 1 1 2 1 1 1 1 1 2 2 3 4 4 4 4 5 5 5 4 3 3 3 2 2 1 1 0 1 1 1 2 2 3 2 3
4 3 2 2 2 2 1 1 2 2 2 2 3 2 2 1 2 2 3 3 4 5 5 5 5 5 4 4 4 3 2 2 2 2 1 1 1 1 1 2 3 3 3 3
6 4 4 3 3 3 3 2 2 2 2 3 3 2 2 2 3 3 3 3 4 4 5 5 5 4 4 4 4 4 3 3 3 2 2 1 1 1 2 2 3 4 4 4
5 4 5 5 5 5 4 3 3 3 3 3 3 3 3 3 3 3 3 3 4 4 5 5 5 5 5 5 5 5 4 4 3 2 2 2 2 2 2 1 1 1 2 5
6 5 6 6 6 5 5 4 4 4 4 4 3 3 3 3 3 3 4 4 4 4 4 5 5 5 5 5 5 5 4 3 2 2 2 2 2 2 1 3 5 4 3 3
4 4 5 5 5 5 5 4 3 3 3 3 3 3 3 3 3 4 4 4 4 4 5 5 6 5 5 5 5 5 5 4 4 3 2 2 2 2 2 2 1 1 4 5
4 5 5 4 4 4 4 3 3 3 3 3 3 3 4 4 4 4 4 4 4 5 5 5 6 5 5 5 5 5 4 3 3 2 3 3 3 3 2 2 2 1 1 3
4 4 3 3 3 3 3 3 3 3 3 3 3 3 4 4 4 4 4 4 5 5 5 5 5 5 5 5 5 5 4 3 3 3 4 3 3 3 2 2 2 2 2 1
4 3 4 4 4 4 4 4 3 4 4 4 3 3 4 4 4 3 4 4 4 3 3 4 4 4 5 5 6 5 4 4 6 6 4 3 3 3 3 3 2 2 2 2
4 4 4 5 5 5 5 5 4 4 4 3 3 3 3 3 3 3 3 3 3 3 3 3 3 4 4 5 5 4 4 4 5 4 3 3 3 3 3 3 3 3 2 1
4 4 4 4 4 5 5 4 4 4 4 3 3 2 3 3 3 3 3 3 4 4 3 3 3 5 5 5 4 5 5 5 5 4 4 3 5 5 4 4 3 3 3 2
5 4 3 3 4 4 4 3 3 3 3 3 2 2 2 2 2 2 3 4 3 2 2 2 4 4 5 5 5 5 5 5 5 4 4 4 4 4 4 4 4 3 3 2
6 5 4 4 4 4 3 3 3 2 2 2 2 2 2 2 2 2 3 3 2 1 1 2 3 4 4 3 6 6 5 5 5 4 4 4 4 5 4 4 4 3 3 3
5 5 5 4 4 4 3 3 3 3 2 2 2 2 2 2 3 3 3 2 2 1 3 3 2 1 1 3 5 5 5 4 4 4 4 5 5 4 4 4 4 3 3 3
5 5 6 5 4 4 3 3 3 3 2 2 2 3 3 3 3 3 2 2 2 1 3 2 1 1 2 5 5 5 5 4 5 4 4 4 4 4 4 4 3 3 3 3
5 6 6 5 4 3 3 3 3 2 2 3 3 3 3 3 3 2 1 2 3 3 3 1 2 2 5 5 5 5 4 4 4 4 4 4 3 3 3 3 3 3 3 3
5 5 5 5 4 3 3 3 2 2 3 2 3 3 3 2 2 2 2 2 2 3 3 3 5 6 6 5 5 4 4 3 3 3 3 3 3 3 3 3 3 3 3 3
4 4 3 4 4 3 3 3 2 2 2 2 2 2 2 2 2 2 2 3 4 4 4 3 3 5 5 5 5 5 4 4 4 4 4 4 4 4 3 4 5 4 3 3
4 3 3 3 3 3 3 3 3 2 2 2 2 2 2 2 2 2 2 2 3 3 3 3 3 3 4 4 4 4 4 3 3 3 4 4 3 3 3 4 4 4 4 4
Wind_Direction
268 283 277 269 257 238 239 256 271 276 271 217 162 172 143 129 130 141 143 136 140 152 150 145 135 132 124 112 116 116 96 75 62 53 31 18 8 354 345 334 334 346 349 350
253 250 254 260 255 247 243 251 252 255 251 115 132 149 141 137 144 154 153 152 155 159 163 160 155 148 130 124 120 128 106 83 80 57 40 25 12 357 356 355 358 4 354 349
255 246 253 247 241 239 231 240 249 251 233 158 170 164 166 167 172 177 171 166 168 169 171 167 167 163 149 144 138 134 115 92 79 48 26 10 3 12 8 3 4 353 345 346
255 246 248 238 233 241 232 222 232 227 165 183 198 198 180 171 190 186 178 177 174 167 159 160 159 157 154 158 159 159 137 115 83 326 356 360 3 10 6 357 352 341 335 342
251 247 245 209 207 217 227 207 173 173 142 158 188 208 175 140 195 192 185 181 174 168 159 153 152 155 163 162 155 162 150 174 285 293 321 345 355 355 351 342 336 328 335 339
245 254 258 165 136 244 236 212 134 153 159 147 207 232 135 112 204 186 174 171 170 167 158 151 149 156 166 162 159 174 190 199 222 277 315 338 344 337 340 323 322 322 342 340
246 250 250 63 102 210 230 130 120 166 177 191 232 331 30 1 210 180 169 162 166 170 168 161 160 166 173 175 187 201 201 193 189 196 290 334 339 328 315 315 327 329 335 331
243 248 232 78 144 240 24 54 103 165 202 247 309 347 94 202 193 183 173 168 170 174 174 167 170 176 180 184 192 201 189 178 172 183 277 8 327 324 315 315 313 317 322 324
290 323 41 55 33 29 21 21 346 277 273 257 247 243 232 223 211 197 189 177 181 183 177 172 178 189 190 186 187 185 178 171 169 165 174 308 280 285 290 302 316 328 327 331
260 245 267 307 337 329 332 307 305 279 263 254 251 244 225 234 220 210 202 193 190 191 185 182 189 198 198 188 185 181 182 174 173 176 174 153 263 281 310 330 335 336 335 334
257 266 270 273 305 315 314 303 295 285 266 260 250 238 237 239 230 224 216 208 199 196 195 190 190 201 200 188 182 184 197 202 197 193 186 197 213 296 302 359 355 330 336 334
279 288 278 277 285 289 278 264 262 262 268 263 250 252 244 242 234 228 219 213 204 202 199 194 192 194 195 191 190 193 201 206 207 201 191 208 203 189 164 221 128 156 308 315
293 291 288 281 273 273 272 269 268 262 258 260 255 252 248 246 237 226 220 218 209 205 200 198 199 195 191 194 198 204 213 210 212 209 203 220 232 245 226 191 195 201 222 256
291 283 277 279 278 278 275 268 265 266 262 260 255 249 247 243 231 221 222 220 212 207 202 198 200 197 191 190 197 207 215 199 216 217 223 229 240 255 267 288 261 195 191 207
295 289 285 290 288 276 270 257 244 250 255 250 247 250 247 243 232 225 222 217 209 207 203 201 202 197 192 191 197 207 217 205 207 223 226 227 241 253 264 277 286 291 255 171
295 300 301 302 311 303 287 269 259 262 262 253 251 259 258 248 233 223 218 210 208 209 205 207 207 200 194 194 199 207 213 201 221 230 227 226 233 247 258 266 276 289 291 311
297 296 300 299 298 293 284 275 267 266 268 259 256 262 259 246 224 219 219 215 218 216 211 212 211 202 197 198 207 216 219 193 200 229 232 238 245 248 256 267 275 288 306 3
276 272 272 274 280 280 279 273 265 264 265 261 249 250 251 234 229 232 226 216 213 214 216 216 211 210 205 206 213 224 220 219 219 227 225 235 252 256 257 261 265 270 272 194
292 287 283 280 277 271 271 273 271 264 263 254 245 245 249 244 240 234 220 220 222 221 220 212 197 211 211 210 219 225 228 225 220 221 228 216 233 245 249 255 262 268 275 277
310 304 298 297 294 287 281 279 278 268 256 242 230 239 249 244 241 238 229 234 242 258 238 217 209 217 217 205 222 229 225 228 226 219 228 236 237 237 243 250 255 262 270 275
326 319 308 302 296 293 292 285 274 271 274 250 234 242 250 248 243 234 229 230 229 238 219 202 221 221 215 201 212 236 230 228 231 231 233 240 247 246 245 250 257 262 265 264
316 315 313 312 308 305 298 293 278 270 265 251 250 263 259 243 240 237 237 246 213 207 232 220 221 188 210 231 227 234 235 233 236 238 239 244 249 251 251 251 252 254 259 265
315 319 317 317 316 315 308 295 283 271 259 255 252 254 254 255 244 238 234 232 228 217 249 241 86 110 238 240 238 236 233 235 240 239 240 243 247 253 253 251 253 259 264 263
313 317 318 316 308 301 300 300 296 283 268 263 255 251 246 240 234 236 234 196 212 226 246 166 152 212 242 246 243 240 234 231 236 238 241 239 238 246 252 252 253 261 261 257
308 307 311 308 297 290 287 283 271 255 250 254 257 252 249 248 248 243 235 227 210 228 236 196 198 218 235 243 239 234 233 231 239 246 246 255 255 252 255 261 264 265 266 256
297 295 297 291 294 290 284 280 277 273 261 254 256 255 256 254 252 237 220 220 220 233 245 231 214 217 232 238 238 234 234 214 209 227 240 247 254 260 265 266 262 256 257 256
282 282 285 286 281 279 282 284 281 274 272 275 279 274 266 259 250 242 237 231 227 236 243 244 237 233 235 235 235 237 238 237 234 236 241 241 250 259 267 270 265 257 253 249